QPF
0.06 0.04 0.04 0.04 0.03 0.02 0.01 0.01 0.02 0.02 0.02 0.02 0.02 0.01 0.02 0.02 0.01 0.01 0.01 0.01 0.01 0.00 0.00 0.00 0.00 0.01 0.01 0.01 0.01 0.01 0.01 0.02 0.02 0.03 0.04 0.04 0.06 0.09
0.07 0.07 0.06 0.05 0.04 0.03 0.02 0.01 0.02 0.02 0.02 0.02 0.02 0.01 0.01 0.02 0.02 0.02 0.02 0.02 0.01 0.01 0.01 0.01 0.01 0.01 0.01 0.01 0.01 0.01 0.01 0.02 0.02 0.03 0.04 0.05 0.05 0.06
0.04 0.05 0.06 0.05 0.04 0.03 0.02 0.02 0.02 0.02 0.02 0.02 0.02 0.02 0.02 0.02 0.02 0.02 0.02 0.02 0.02 0.01 0.01 0.01 0.01 0.01 0.01 0.01 0.01 0.01 0.01 0.01 0.02 0.02 0.03 0.05 0.06 0.06
0.03 0.04 0.04 0.05 0.05 0.04 0.03 0.03 0.02 0.02 0.02 0.02 0.02 0.02 0.03 0.03 0.03 0.02 0.02 0.01 0.01 0.01 0.01 0.01 0.01 0.01 0.01 0.01 0.01 0.01 0.02 0.02 0.02 0.02 0.02 0.03 0.05 0.06
0.04 0.03 0.03 0.04 0.05 0.05 0.04 0.04 0.04 0.03 0.03 0.03 0.02 0.02 0.02 0.03 0.03 0.03 0.02 0.02 0.01 0.01 0.01 0.01 0.01 0.01 0.01 0.01 0.01 0.01 0.02 0.02 0.02 0.02 0.02 0.03 0.04 0.06
0.03 0.03 0.02 0.03 0.04 0.05 0.05 0.05 0.04 0.04 0.04 0.04 0.03 0.03 0.03 0.02 0.03 0.04 0.03 0.03 0.02 0.02 0.02 0.02 0.01 0.01 0.01 0.01 0.01 0.02 0.02 0.03 0.03 0.03 0.03 0.03 0.05 0.05
0.05 0.04 0.03 0.04 0.05 0.06 0.06 0.06 0.06 0.05 0.05 0.04 0.05 0.04 0.04 0.03 0.03 0.03 0.04 0.04 0.03 0.02 0.03 0.03 0.02 0.02 0.02 0.01 0.02 0.02 0.03 0.04 0.05 0.04 0.03 0.03 0.04 0.05
0.05 0.05 0.05 0.06 0.07 0.07 0.08 0.08 0.07 0.07 0.07 0.06 0.06 0.05 0.04 0.04 0.03 0.03 0.04 0.04 0.04 0.03 0.03 0.03 0.03 0.02 0.02 0.02 0.02 0.02 0.05 0.07 0.07 0.04 0.03 0.02 0.03 0.04
0.04 0.04 0.05 0.06 0.06 0.07 0.07 0.07 0.07 0.07 0.07 0.07 0.07 0.06 0.04 0.03 0.03 0.03 0.03 0.04 0.04 0.03 0.04 0.04 0.03 0.03 0.02 0.01 0.02 0.03 0.06 0.10 0.09 0.05 0.04 0.03 0.03 0.03
0.03 0.04 0.04 0.05 0.05 0.06 0.06 0.05 0.05 0.05 0.05 0.05 0.05 0.05 0.04 0.03 0.03 0.03 0.03 0.03 0.03 0.03 0.03 0.03 0.03 0.03 0.04 0.03 0.05 0.05 0.07 0.10 0.09 0.06 0.04 0.03 0.03 0.03
0.02 0.03 0.04 0.04 0.05 0.06 0.05 0.05 0.05 0.04 0.04 0.04 0.03 0.03 0.03 0.03 0.03 0.03 0.03 0.03 0.03 0.03 0.03 0.04 0.03 0.04 0.05 0.06 0.07 0.07 0.07 0.08 0.07 0.05 0.04 0.03 0.02 0.02
0.02 0.02 0.03 0.03 0.04 0.04 0.04 0.04 0.04 0.04 0.04 0.03 0.03 0.02 0.02 0.02 0.02 0.02 0.02 0.03 0.03 0.04 0.03 0.04 0.05 0.07 0.07 0.06 0.05 0.05 0.06 0.06 0.05 0.05 0.04 0.03 0.02 0.01
0.01 0.01 0.02 0.02 0.03 0.03 0.03 0.03 0.03 0.03 0.03 0.02 0.02 0.02 0.02 0.01 0.02 0.02 0.02 0.02 0.03 0.03 0.02 0.04 0.05 0.06 0.06 0.05 0.04 0.04 0.03 0.03 0.04 0.04 0.04 0.03 0.02 0.01
0.02 0.01 0.01 0.01 0.02 0.02 0.02 0.03 0.02 0.02 0.02 0.02 0.02 0.03 0.03 0.02 0.02 0.02 0.02 0.02 0.02 0.02 0.02 0.03 0.04 0.04 0.05 0.05 0.04 0.03 0.02 0.02 0.02 0.03 0.03 0.03 0.02 0.01
0.02 0.02 0.02 0.02 0.02 0.02 0.02 0.02 0.02 0.02 0.02 0.02 0.03 0.03 0.03 0.02 0.02 0.02 0.02 0.02 0.02 0.02 0.02 0.03 0.03 0.03 0.03 0.04 0.04 0.03 0.02 0.02 0.02 0.02 0.02 0.02 0.02 0.02
0.02 0.02 0.02 0.02 0.02 0.02 0.02 0.02 0.02 0.02 0.02 0.02 0.02 0.02 0.02 0.02 0.02 0.02 0.02 0.02 0.02 0.02 0.02 0.03 0.03 0.04 0.04 0.03 0.03 0.03 0.02 0.02 0.02 0.01 0.01 0.01 0.01 0.02
0.02 0.02 0.02 0.02 0.02 0.02 0.02 0.02 0.02 0.02 0.02 0.02 0.01 0.01 0.02 0.02 0.02 0.02 0.03 0.03 0.02 0.02 0.02 0.02 0.03 0.04 0.04 0.03 0.03 0.02 0.02 0.02 0.02 0.01 0.01 0.02 0.02 0.02
0.03 0.02 0.02 0.01 0.02 0.02 0.02 0.02 0.02 0.01 0.01 0.01 0.01 0.01 0.01 0.02 0.02 0.02 0.02 0.03 0.02 0.02 0.02 0.02 0.03 0.04 0.04 0.04 0.05 0.04 0.03 0.02 0.02 0.03 0.03 0.03 0.02 0.02
0.04 0.03 0.02 0.02 0.02 0.02 0.02 0.02 0.01 0.01 0.00 0.01 0.01 0.01 0.01 0.01 0.02 0.02 0.02 0.02 0.02 0.02 0.02 0.03 0.04 0.05 0.04 0.04 0.03 0.04 0.05 0.05 0.04 0.04 0.04 0.04 0.03 0.02
0.04 0.03 0.03 0.02 0.02 0.02 0.02 0.01 0.01 0.01 0.01 0.01 0.01 0.01 0.01 0.01 0.02 0.02 0.02 0.02 0.02 0.02 0.03 0.03 0.04 0.05 0.06 0.05 0.04 0.04 0.04 0.05 0.05 0.05 0.05 0.04 0.04 0.03
0.03 0.03 0.02 0.02 0.02 0.02 0.02 0.02 0.01 0.01 0.01 0.01 0.01 0.01 0.01 0.01 0.02 0.02 0.02 0.02 0.02 0.02 0.02 0.03 0.03 0.04 0.05 0.05 0.05 0.04 0.03 0.04 0.04 0.04 0.04 0.04 0.04 0.04
0.03 0.03 0.03 0.02 0.02 0.02 0.02 0.02 0.02 0.02 0.02 0.01 0.01 0.01 0.01 0.01 0.02 0.02 0.02 0.02 0.02 0.02 0.02 0.02 0.02 0.03 0.04 0.05 0.05 0.04 0.03 0.04 0.04 0.05 0.04 0.04 0.04 0.03
0.03 0.03 0.03 0.03 0.02 0.02 0.02 0.02 0.02 0.02 0.02 0.02 0.01 0.01 0.02 0.02 0.02 0.02 0.02 0.02 0.02 0.02 0.02 0.02 0.02 0.03 0.03 0.04 0.04 0.04 0.04 0.04 0.04 0.05 0.05 0.05 0.04 0.03
MSLP
1005.93 1006.80 1007.89 1009.16 1010.54 1011.95 1013.33 1014.65 1015.88 1016.99 1018.01 1018.93 1019.77 1020.54 1021.23 1021.85 1022.39 1022.85 1023.22 1023.52 1023.75 1023.95 1024.13 1024.30 1024.50 1024.71 1024.93 1025.15 1025.35 1025.50 1025.58 1025.59 1025.52 1025.38 1025.19 1024.96 1024.71 1024.46
1005.63 1006.39 1007.37 1008.52 1009.79 1011.12 1012.45 1013.74 1014.98 1016.14 1017.23 1018.26 1019.23 1020.14 1020.98 1021.74 1022.42 1023.00 1023.47 1023.84 1024.14 1024.36 1024.56 1024.74 1024.93 1025.13 1025.33 1025.53 1025.71 1025.84 1025.90 1025.90 1025.83 1025.69 1025.51 1025.30 1025.06 1024.83
1005.53 1006.20 1007.07 1008.10 1009.25 1010.46 1011.71 1012.95 1014.17 1015.35 1016.50 1017.61 1018.68 1019.70 1020.67 1021.56 1022.35 1023.03 1023.59 1024.04 1024.39 1024.66 1024.88 1025.07 1025.26 1025.44 1025.63 1025.81 1025.96 1026.07 1026.12 1026.11 1026.04 1025.91 1025.74 1025.55 1025.34 1025.14
1005.60 1006.19 1006.96 1007.88 1008.90 1010.01 1011.17 1012.34 1013.52 1014.69 1015.86 1017.02 1018.16 1019.26 1020.32 1021.30 1022.18 1022.94 1023.58 1024.09 1024.49 1024.81 1025.06 1025.27 1025.46 1025.64 1025.82 1025.98 1026.12 1026.21 1026.25 1026.23 1026.16 1026.05 1025.90 1025.74 1025.56 1025.39
1005.80 1006.34 1007.03 1007.85 1008.77 1009.77 1010.83 1011.92 1013.04 1014.19 1015.35 1016.52 1017.69 1018.83 1019.93 1020.96 1021.89 1022.71 1023.40 1023.97 1024.42 1024.78 1025.07 1025.31 1025.52 1025.72 1025.90 1026.06 1026.18 1026.27 1026.30 1026.29 1026.23 1026.14 1026.02 1025.88 1025.74 1025.59
1006.10 1006.62 1007.25 1007.99 1008.81 1009.72 1010.68 1011.69 1012.75 1013.84 1014.96 1016.11 1017.27 1018.41 1019.52 1020.56 1021.51 1022.35 1023.08 1023.68 1024.18 1024.58 1024.91 1025.20 1025.45 1025.67 1025.86 1026.03 1026.16 1026.25 1026.29 1026.29 1026.25 1026.18 1026.08 1025.98 1025.87 1025.75
1006.47 1006.98 1007.58 1008.25 1009.00 1009.82 1010.69 1011.62 1012.60 1013.63 1014.69 1015.79 1016.90 1018.01 1019.09 1020.10 1021.04 1021.89 1022.62 1023.26 1023.79 1024.24 1024.62 1024.95 1025.24 1025.50 1025.73 1025.92 1026.06 1026.17 1026.22 1026.23 1026.21 1026.17 1026.10 1026.03 1025.94 1025.84
1006.86 1007.38 1007.96 1008.59 1009.28 1010.03 1010.83 1011.68 1012.58 1013.53 1014.53 1015.55 1016.60 1017.65 1018.67 1019.64 1020.54 1021.37 1022.10 1022.74 1023.30 1023.79 1024.22 1024.60 1024.94 1025.25 1025.51 1025.73 1025.90 1026.02 1026.09 1026.12 1026.12 1026.09 1026.06 1026.00 1025.93 1025.84
1007.25 1007.79 1008.36 1008.97 1009.61 1010.30 1011.03 1011.81 1012.64 1013.52 1014.44 1015.40 1016.38 1017.35 1018.30 1019.22 1020.07 1020.86 1021.58 1022.23 1022.80 1023.32 1023.79 1024.22 1024.60 1024.94 1025.24 1025.48 1025.67 1025.81 1025.89 1025.94 1025.95 1025.94 1025.92 1025.88 1025.82 1025.74
1007.61 1008.18 1008.75 1009.34 1009.95 1010.60 1011.28 1012.01 1012.78 1013.60 1014.45 1015.34 1016.25 1017.16 1018.05 1018.90 1019.71 1020.46 1021.15 1021.79 1022.37 1022.91 1023.40 1023.86 1024.27 1024.64 1024.96 1025.22 1025.42 1025.56 1025.65 1025.70 1025.72 1025.71 1025.70 1025.66 1025.61 1025.52
1007.97 1008.54 1009.12 1009.70 1010.30 1010.91 1011.56 1012.24 1012.97 1013.74 1014.55 1015.39 1016.25 1017.10 1017.94 1018.74 1019.50 1020.22 1020.88 1021.50 1022.07 1022.61 1023.11 1023.58 1024.00 1024.38 1024.70 1024.96 1025.16 1025.30 1025.39 1025.43 1025.44 1025.43 1025.41 1025.37 1025.31 1025.22
1008.34 1008.92 1009.50 1010.07 1010.64 1011.24 1011.86 1012.52 1013.22 1013.96 1014.74 1015.55 1016.37 1017.19 1017.99 1018.75 1019.48 1020.16 1020.79 1021.39 1021.94 1022.47 1022.96 1023.41 1023.83 1024.20 1024.51 1024.76 1024.94 1025.07 1025.14 1025.16 1025.16 1025.13 1025.10 1025.05 1024.98 1024.88
1008.76 1009.34 1009.90 1010.46 1011.01 1011.59 1012.19 1012.83 1013.51 1014.24 1015.01 1015.80 1016.61 1017.41 1018.18 1018.93 1019.63 1020.28 1020.88 1021.45 1021.98 1022.48 1022.94 1023.38 1023.77 1024.11 1024.40 1024.63 1024.79 1024.89 1024.94 1024.94 1024.91 1024.87 1024.81 1024.75 1024.66 1024.56
1009.28 1009.83 1010.37 1010.89 1011.42 1011.97 1012.55 1013.17 1013.84 1014.57 1015.33 1016.12 1016.92 1017.71 1018.48 1019.21 1019.89 1020.52 1021.10 1021.64 1022.14 1022.61 1023.04 1023.44 1023.80 1024.12 1024.38 1024.58 1024.71 1024.78 1024.81 1024.79 1024.74 1024.67 1024.59 1024.51 1024.41 1024.29
1009.91 1010.41 1010.90 1011.38 1011.87 1012.39 1012.94 1013.54 1014.20 1014.91 1015.66 1016.45 1017.25 1018.04 1018.80 1019.53 1020.20 1020.81 1021.38 1021.89 1022.37 1022.80 1023.21 1023.58 1023.90 1024.19 1024.42 1024.59 1024.70 1024.76 1024.76 1024.72 1024.65 1024.56 1024.45 1024.34 1024.22 1024.09
1010.64 1011.08 1011.50 1011.93 1012.37 1012.83 1013.34 1013.91 1014.54 1015.23 1015.98 1016.75 1017.54 1018.33 1019.08 1019.80 1020.46 1021.07 1021.62 1022.12 1022.57 1022.99 1023.37 1023.71 1024.02 1024.28 1024.49 1024.65 1024.74 1024.78 1024.77 1024.71 1024.62 1024.50 1024.37 1024.23 1024.09 1023.94
1011.43 1011.79 1012.14 1012.50 1012.88 1013.28 1013.74 1014.27 1014.86 1015.52 1016.23 1016.98 1017.75 1018.52 1019.27 1019.97 1020.62 1021.22 1021.77 1022.26 1022.70 1023.10 1023.47 1023.80 1024.10 1024.35 1024.55 1024.69 1024.78 1024.81 1024.78 1024.71 1024.60 1024.46 1024.31 1024.14 1023.96 1023.78
1012.21 1012.50 1012.78 1013.06 1013.37 1013.72 1014.12 1014.59 1015.13 1015.74 1016.41 1017.12 1017.86 1018.60 1019.32 1020.00 1020.64 1021.23 1021.77 1022.26 1022.70 1023.10 1023.47 1023.80 1024.09 1024.34 1024.54 1024.68 1024.76 1024.79 1024.75 1024.67 1024.54 1024.38 1024.19 1023.99 1023.78 1023.57
1012.93 1013.14 1013.35 1013.57 1013.81 1014.10 1014.45 1014.86 1015.35 1015.90 1016.52 1017.18 1017.87 1018.57 1019.25 1019.91 1020.53 1021.11 1021.64 1022.13 1022.57 1022.98 1023.35 1023.68 1023.98 1024.22 1024.42 1024.57 1024.65 1024.66 1024.62 1024.52 1024.38 1024.19 1023.98 1023.75 1023.51 1023.26
1013.51 1013.67 1013.82 1013.99 1014.19 1014.43 1014.73 1015.10 1015.53 1016.02 1016.58 1017.18 1017.81 1018.45 1019.09 1019.71 1020.30 1020.86 1021.38 1021.87 1022.32 1022.73 1023.11 1023.44 1023.74 1023.99 1024.19 1024.33 1024.40 1024.41 1024.36 1024.24 1024.08 1023.87 1023.64 1023.38 1023.11 1022.84
1013.95 1014.06 1014.18 1014.32 1014.49 1014.70 1014.96 1015.29 1015.67 1016.11 1016.61 1017.14 1017.71 1018.29 1018.87 1019.45 1020.01 1020.54 1021.04 1021.52 1021.97 1022.38 1022.76 1023.10 1023.39 1023.64 1023.83 1023.96 1024.03 1024.02 1023.96 1023.83 1023.65 1023.43 1023.18 1022.90 1022.62 1022.33
1014.21 1014.30 1014.41 1014.54 1014.70 1014.89 1015.14 1015.43 1015.78 1016.18 1016.61 1017.09 1017.59 1018.11 1018.63 1019.16 1019.67 1020.17 1020.65 1021.11 1021.55 1021.96 1022.33 1022.66 1022.95 1023.19 1023.37 1023.49 1023.54 1023.53 1023.45 1023.31 1023.13 1022.90 1022.65 1022.37 1022.08 1021.79
1014.33 1014.41 1014.52 1014.65 1014.81 1015.01 1015.25 1015.53 1015.85 1016.21 1016.60 1017.02 1017.46 1017.91 1018.38 1018.85 1019.31 1019.78 1020.23 1020.67 1021.09 1021.48 1021.84 1022.16 1022.44 1022.66 1022.83 1022.94 1022.98 1022.96 1022.88 1022.74 1022.56 1022.34 1022.10 1021.83 1021.56 1021.28
Thickness
5525 5524 5523 5522 5522 5522 5522 5522 5523 5525 5527 5525 5522 5520 5519 5519 5518 5517 5517 5516 5515 5514 5512 5510 5509 5507 5506 5505 5504 5503 5502 5501 5500 5500 5500 5500 5500 5501
5515 5515 5515 5514 5513 5512 5513 5514 5514 5516 5517 5517 5514 5511 5510 5509 5508 5507 5507 5506 5505 5504 5502 5500 5499 5498 5496 5495 5495 5493 5492 5491 5490 5490 5490 5490 5491 5491
5507 5507 5506 5505 5505 5504 5503 5504 5504 5505 5506 5505 5503 5502 5501 5500 5499 5498 5497 5496 5496 5494 5493 5491 5489 5488 5487 5485 5484 5483 5482 5481 5480 5480 5481 5481 5482 5483
5498 5497 5497 5496 5496 5496 5495 5494 5494 5494 5494 5494 5493 5492 5491 5490 5489 5488 5487 5486 5485 5484 5483 5482 5480 5479 5477 5476 5475 5474 5473 5472 5472 5472 5472 5472 5473 5473
5489 5488 5488 5488 5487 5486 5486 5485 5484 5484 5484 5483 5483 5482 5481 5480 5479 5478 5477 5476 5475 5474 5474 5473 5472 5470 5469 5467 5466 5464 5464 5464 5464 5464 5463 5464 5464 5464
5478 5479 5479 5479 5478 5478 5477 5476 5475 5475 5475 5474 5473 5473 5472 5470 5468 5469 5468 5467 5466 5466 5465 5465 5464 5462 5461 5460 5458 5457 5456 5456 5455 5455 5455 5455 5456 5456
5468 5469 5469 5469 5468 5468 5468 5468 5467 5466 5465 5464 5464 5463 5463 5462 5460 5459 5459 5458 5458 5457 5456 5457 5456 5456 5455 5453 5451 5450 5449 5448 5448 5448 5447 5447 5448 5448
5458 5459 5459 5459 5459 5458 5458 5458 5458 5457 5456 5455 5455 5455 5454 5453 5451 5450 5449 5449 5450 5449 5446 5448 5448 5449 5448 5446 5445 5443 5442 5441 5440 5440 5440 5440 5440 5440
5447 5448 5449 5449 5448 5449 5449 5448 5448 5447 5446 5446 5446 5446 5445 5445 5443 5441 5440 5439 5439 5438 5436 5439 5439 5440 5440 5439 5438 5436 5435 5434 5433 5433 5433 5432 5432 5431
5436 5437 5438 5438 5438 5438 5439 5439 5439 5438 5437 5437 5436 5436 5435 5434 5433 5432 5431 5430 5429 5428 5427 5429 5431 5432 5432 5432 5431 5429 5428 5427 5426 5426 5425 5425 5424 5424
5427 5427 5427 5428 5428 5428 5429 5430 5430 5429 5428 5427 5426 5426 5425 5424 5423 5422 5421 5421 5422 5421 5419 5419 5421 5422 5423 5424 5424 5422 5421 5420 5420 5419 5418 5418 5417 5417
5417 5417 5417 5418 5418 5418 5419 5420 5421 5421 5420 5419 5417 5416 5416 5415 5414 5413 5413 5413 5413 5413 5411 5409 5410 5409 5414 5417 5416 5415 5414 5413 5413 5412 5412 5411 5410 5410
5409 5409 5409 5408 5409 5409 5409 5410 5411 5410 5410 5409 5408 5408 5407 5406 5406 5405 5404 5404 5404 5404 5402 5400 5401 5400 5401 5404 5407 5407 5406 5406 5405 5405 5404 5404 5403 5403
5400 5401 5400 5399 5399 5399 5399 5400 5399 5399 5399 5399 5399 5399 5399 5398 5397 5396 5395 5394 5394 5394 5393 5392 5392 5392 5392 5394 5397 5398 5397 5397 5397 5397 5397 5396 5395 5395
5392 5392 5391 5389 5389 5389 5390 5390 5389 5389 5389 5390 5390 5390 5389 5388 5388 5387 5386 5385 5385 5385 5385 5385 5384 5384 5384 5385 5387 5388 5388 5389 5388 5388 5388 5388 5388 5388
5382 5382 5381 5380 5380 5380 5380 5380 5380 5380 5380 5380 5381 5380 5379 5379 5379 5378 5377 5377 5377 5377 5376 5376 5376 5376 5377 5378 5378 5379 5379 5379 5380 5380 5380 5381 5381 5381
5373 5373 5373 5372 5372 5372 5371 5371 5371 5371 5370 5371 5371 5371 5370 5370 5369 5369 5368 5367 5367 5368 5368 5368 5367 5367 5368 5369 5370 5371 5371 5371 5371 5372 5372 5373 5374 5374
5365 5365 5365 5365 5364 5364 5363 5362 5362 5362 5362 5362 5362 5362 5361 5361 5360 5360 5359 5359 5359 5359 5360 5359 5359 5360 5361 5361 5360 5361 5362 5363 5364 5364 5365 5366 5368 5368
5356 5357 5357 5356 5356 5355 5355 5354 5354 5353 5353 5353 5353 5353 5353 5352 5351 5351 5351 5351 5351 5351 5351 5351 5351 5351 5354 5356 5356 5352 5353 5355 5356 5358 5359 5360 5362 5363
5348 5348 5348 5348 5347 5347 5346 5346 5346 5345 5345 5345 5345 5345 5345 5344 5343 5343 5343 5343 5343 5343 5344 5344 5343 5343 5344 5346 5346 5346 5346 5347 5349 5351 5352 5353 5355 5356
5340 5340 5340 5339 5339 5339 5338 5338 5338 5337 5338 5338 5338 5338 5337 5337 5337 5336 5335 5335 5335 5336 5337 5338 5337 5336 5336 5336 5338 5340 5341 5340 5341 5342 5345 5346 5349 5351
5332 5332 5332 5331 5331 5331 5331 5331 5330 5330 5331 5331 5331 5331 5330 5330 5330 5329 5329 5328 5329 5329 5329 5330 5330 5330 5331 5332 5333 5334 5334 5335 5335 5337 5338 5339 5341 5344
5324 5323 5323 5323 5323 5324 5324 5323 5323 5323 5324 5324 5324 5324 5323 5323 5323 5323 5323 5322 5322 5323 5323 5323 5323 5323 5324 5324 5325 5326 5327 5328 5330 5332 5333 5333 5334 5336